| time (UTC) | temp F | wind direction | speed MPH | gust MPH | rain 1hr in | rain 24hr in | rain mn in | humidity % | barometer mb |
| 20260507230542 | 60 | 314 | 5.0 | 10.0 | 0.00 | 0.08 | 0.05 | 30 | 1015.6 |
| 20260507230038 | 60 | 346 | 4.0 | 14.0 | 0.00 | 0.09 | 0.05 | 30 | 1015.6 |
| 20260507225538 | 60 | 344 | 8.0 | 14.0 | 0.00 | 0.09 | 0.05 | 29 | 1015.7 |
| 20260507225038 | 60 | 347 | 5.0 | 12.0 | 0.00 | 0.09 | 0.05 | 30 | 1015.7 |
| 20260507224537 | 61 | 279 | 4.0 | 14.0 | 0.00 | 0.09 | 0.05 | 28 | 1015.8 |
| 20260507224036 | 62 | 45 | 4.0 | 14.0 | 0.00 | 0.09 | 0.05 | 28 | 1015.8 |
| 20260507223538 | 63 | 259 | 6.0 | 23.0 | 0.00 | 0.09 | 0.05 | 28 | 1016.0 |
| 20260507223036 | 62 | 300 | 8.0 | 23.0 | 0.00 | 0.09 | 0.05 | 27 | 1016.1 |
| 20260507222539 | 62 | 303 | 7.0 | 15.0 | 0.00 | 0.09 | 0.05 | 27 | 1016.0 |
| 20260507222034 | 64 | 278 | 6.0 | 15.0 | 0.00 | 0.09 | 0.05 | 26 | 1016.1 |
| 20260507221534 | 64 | 315 | 5.0 | 13.0 | 0.00 | 0.09 | 0.05 | 27 | 1016.4 |
| 20260507221031 | 63 | 325 | 6.0 | 13.0 | 0.00 | 0.09 | 0.05 | 27 | 1016.5 |
| 20260507220531 | 63 | 323 | 5.0 | 18.0 | 0.00 | 0.09 | 0.05 | 28 | 1016.7 |
| 20260507220031 | 63 | 332 | 7.0 | 18.0 | 0.00 | 0.10 | 0.05 | 28 | 1016.8 |
| 20260507215531 | 63 | 342 | 5.0 | 15.0 | 0.00 | 0.10 | 0.05 | 28 | 1016.8 |
| 20260507215029 | 62 | 5 | 7.0 | 16.0 | 0.00 | 0.10 | 0.05 | 31 | 1016.9 |
| 20260507214527 | 62 | 46 | 6.0 | 16.0 | 0.00 | 0.10 | 0.05 | 30 | 1017.0 |
| 20260507214027 | 62 | 340 | 9.0 | 19.0 | 0.00 | 0.10 | 0.05 | 29 | 1017.0 |
| 20260507213526 | 63 | 323 | 10.0 | 19.0 | 0.00 | 0.10 | 0.05 | 27 | 1017.0 |
| 20260507213028 | 61 | 310 | 7.0 | 18.0 | 0.00 | 0.10 | 0.05 | 32 | 1017.1 |
| 20260507212524 | 61 | 317 | 4.0 | 22.0 | 0.00 | 0.10 | 0.05 | 31 | 1017.2 |
| 20260507212124 | 61 | 347 | 9.0 | 22.0 | 0.00 | 0.10 | 0.05 | 33 | 1017.2 |
| 20260507211523 | 61 | 14 | 7.0 | 14.0 | 0.00 | 0.10 | 0.05 | 30 | 1017.4 |
| 20260507211021 | 61 | 279 | 5.0 | 11.0 | 0.00 | 0.10 | 0.05 | 31 | 1017.5 |
| 20260507210520 | 61 | 298 | 5.0 | 12.0 | 0.00 | 0.10 | 0.05 | 34 | 1017.9 |
| 20260507210020 | 60 | 342 | 5.0 | 12.0 | 0.00 | 0.10 | 0.05 | 35 | 1018.0 |
| 20260507205518 | 59 | 262 | 5.0 | 16.0 | 0.00 | 0.10 | 0.05 | 35 | 1018.0 |
| 20260507205118 | 59 | 287 | 5.0 | 18.0 | 0.00 | 0.10 | 0.05 | 34 | 1018.1 |
| 20260507204516 | 59 | 328 | 8.0 | 16.0 | 0.00 | 0.10 | 0.05 | 34 | 1018.3 |
| 20260507204015 | 59 | 323 | 10.0 | 16.0 | 0.00 | 0.10 | 0.05 | 33 | 1018.4 |
| 20260507203515 | 59 | 338 | 4.0 | 16.0 | 0.00 | 0.10 | 0.05 | 35 | 1018.4 |
| 20260507203013 | 59 | 317 | 9.0 | 16.0 | 0.00 | 0.10 | 0.05 | 34 | 1018.7 |
| 20260507202514 | 59 | 306 | 6.0 | 17.0 | 0.00 | 0.10 | 0.05 | 34 | 1018.8 |
| 20260507202012 | 59 | 302 | 7.0 | 15.0 | 0.00 | 0.10 | 0.05 | 34 | 1018.8 |
| 20260507201514 | 60 | 17 | 6.0 | 12.0 | 0.00 | 0.10 | 0.05 | 34 | 1019.0 |
| 20260507201012 | 59 | 303 | 6.0 | 13.0 | 0.00 | 0.10 | 0.05 | 35 | 1019.2 |
| 20260507200510 | 59 | 24 | 5.0 | 14.0 | 0.00 | 0.10 | 0.05 | 35 | 1019.3 |
| 20260507200008 | 59 | 237 | 3.0 | 18.0 | 0.00 | 0.10 | 0.05 | 37 | 1019.2 |
| 20260507195508 | 58 | 274 | 8.0 | 18.0 | 0.00 | 0.10 | 0.05 | 38 | 1019.3 |
| 20260507195007 | 58 | 244 | 8.0 | 14.0 | 0.00 | 0.10 | 0.05 | 35 | 1019.4 |
| 20260507194506 | 58 | 293 | 7.0 | 14.0 | 0.00 | 0.10 | 0.05 | 37 | 1019.6 |
| 20260507194005 | 58 | 321 | 8.0 | 19.0 | 0.00 | 0.10 | 0.05 | 36 | 1019.7 |
| 20260507193504 | 57 | 322 | 7.0 | 19.0 | 0.00 | 0.10 | 0.05 | 36 | 1019.7 |
| 20260507193003 | 57 | 288 | 7.0 | 14.0 | 0.00 | 0.10 | 0.05 | 38 | 1019.9 |
| 20260507192502 | 56 | 276 | 5.0 | 14.0 | 0.00 | 0.10 | 0.05 | 38 | 1019.9 |
| 20260507192001 | 56 | 304 | 7.0 | 14.0 | 0.00 | 0.10 | 0.05 | 35 | 1020.3 |
| 20260507191617 | 56 | 292 | 7.0 | 14.0 | 0.00 | 0.10 | 0.05 | 35 | 1020.2 |
| 20260507191059 | 57 | 216 | 3.0 | 8.0 | 0.00 | 0.10 | 0.05 | 38 | 1020.4 |
| 20260507190559 | 56 | 283 | 3.0 | 9.0 | 0.00 | 0.10 | 0.05 | 36 | 1020.5 |
| 20260507190057 | 56 | 253 | 3.0 | 12.0 | 0.00 | 0.12 | 0.05 | 37 | 1020.7 |
| 20260507185556 | 55 | 348 | 6.0 | 12.0 | 0.00 | 0.12 | 0.05 | 35 | 1020.7 |
| 20260507185055 | 56 | 317 | 5.0 | 11.0 | 0.00 | 0.12 | 0.05 | 35 | 1020.9 |
| 20260507184602 | 55 | 300 | 5.0 | 11.0 | 0.00 | 0.12 | 0.05 | 35 | 1021.0 |
| 20260507184056 | 55 | 327 | 7.0 | 13.0 | 0.00 | 0.12 | 0.05 | 34 | 1021.2 |
| 20260507183553 | 56 | 254 | 3.0 | 13.0 | 0.00 | 0.12 | 0.05 | 33 | 1021.1 |
| 20260507183053 | 56 | 292 | 3.0 | 13.0 | 0.00 | 0.12 | 0.05 | 33 | 1021.3 |
| 20260507182553 | 56 | 245 | 4.0 | 7.0 | 0.00 | 0.12 | 0.05 | 31 | 1021.2 |
| 20260507182052 | 56 | 276 | 4.0 | 9.0 | 0.00 | 0.12 | 0.05 | 32 | 1021.4 |
| 20260507181550 | 55 | 315 | 1.0 | 9.0 | 0.00 | 0.12 | 0.05 | 31 | 1021.6 |
| 20260507181050 | 55 | 300 | 3.0 | 6.0 | 0.00 | 0.12 | 0.05 | 31 | 1021.5 |
| 20260507180549 | 55 | 262 | 1.0 | 9.0 | 0.00 | 0.12 | 0.05 | 30 | 1021.6 |
| 20260507180049 | 55 | 325 | 4.0 | 9.0 | 0.00 | 0.13 | 0.05 | 32 | 1021.6 |
| 20260507175549 | 55 | 265 | 3.0 | 8.0 | 0.00 | 0.13 | 0.05 | 30 | 1021.7 |
| 20260507175049 | 55 | 313 | 2.0 | 5.0 | 0.00 | 0.13 | 0.05 | 34 | 1021.7 |
| 20260507174548 | 55 | 317 | 0.0 | 8.0 | 0.00 | 0.13 | 0.05 | 36 | 1021.9 |
| 20260507174046 | 55 | 290 | 5.0 | 8.0 | 0.00 | 0.13 | 0.05 | 31 | 1022.1 |
| 20260507173544 | 55 | 277 | 2.0 | 8.0 | 0.00 | 0.13 | 0.05 | 34 | 1022.2 |
| 20260507173044 | 55 | 272 | 3.0 | 10.0 | 0.00 | 0.13 | 0.05 | 34 | 1022.4 |
| 20260507172543 | 54 | 269 | 3.0 | 10.0 | 0.00 | 0.13 | 0.05 | 37 | 1022.6 |
| 20260507172040 | 53 | 298 | 4.0 | 9.0 | 0.00 | 0.13 | 0.05 | 39 | 1022.7 |
| 20260507171547 | 53 | 318 | 5.0 | 9.0 | 0.00 | 0.13 | 0.05 | 38 | 1022.9 |
| 20260507171038 | 54 | 311 | 3.0 | 9.0 | 0.00 | 0.13 | 0.05 | 35 | 1023.0 |
| 20260507170538 | 53 | 343 | 4.0 | 10.0 | 0.00 | 0.13 | 0.05 | 32 | 1023.1 |
| 20260507170037 | 54 | 290 | 2.0 | 10.0 | 0.00 | 0.13 | 0.05 | 41 | 1023.1 |
| 20260507165537 | 53 | 309 | 3.0 | 9.0 | 0.00 | 0.13 | 0.05 | 39 | 1023.1 |
| 20260507165035 | 53 | 308 | 4.0 | 9.0 | 0.00 | 0.13 | 0.05 | 35 | 1023.1 |
| 20260507164536 | 53 | 340 | 2.0 | 9.0 | 0.00 | 0.13 | 0.05 | 40 | 1023.2 |
| 20260507164034 | 53 | 35 | 3.0 | 8.0 | 0.00 | 0.13 | 0.05 | 42 | 1023.1 |
| 20260507163531 | 52 | 279 | 1.0 | 11.0 | 0.00 | 0.13 | 0.05 | 43 | 1023.2 |
| 20260507163031 | 52 | 279 | 6.0 | 11.0 | 0.00 | 0.13 | 0.05 | 37 | 1023.4 |
| 20260507162528 | 51 | 296 | 3.0 | 9.0 | 0.00 | 0.13 | 0.05 | 44 | 1023.4 |
| 20260507162026 | 51 | 259 | 2.0 | 8.0 | 0.00 | 0.13 | 0.05 | 45 | 1023.4 |
| 20260507161525 | 50 | 295 | 3.0 | 10.0 | 0.00 | 0.13 | 0.05 | 46 | 1023.4 |
| 20260507161025 | 50 | 277 | 6.0 | 10.0 | 0.01 | 0.13 | 0.05 | 48 | 1023.5 |
| 20260507160528 | 49 | 215 | 4.0 | 9.0 | 0.01 | 0.13 | 0.05 | 51 | 1023.6 |
| 20260507160030 | 49 | 244 | 4.0 | 8.0 | 0.01 | 0.13 | 0.05 | 53 | 1023.6 |
| 20260507155524 | 48 | 270 | 3.0 | 8.0 | 0.01 | 0.13 | 0.05 | 54 | 1023.7 |
| 20260507155018 | 48 | 265 | 2.0 | 7.0 | 0.01 | 0.13 | 0.05 | 54 | 1023.8 |
| 20260507154519 | 47 | 287 | 3.0 | 8.0 | 0.02 | 0.13 | 0.05 | 55 | 1023.9 |
| 20260507154016 | 47 | 256 | 3.0 | 8.0 | 0.02 | 0.13 | 0.05 | 57 | 1024.0 |
| 20260507153513 | 46 | 267 | 3.0 | 8.0 | 0.02 | 0.13 | 0.05 | 59 | 1024.1 |
| 20260507153012 | 46 | 287 | 3.0 | 9.0 | 0.03 | 0.13 | 0.05 | 59 | 1024.1 |
| 20260507152513 | 45 | 284 | 4.0 | 9.0 | 0.03 | 0.13 | 0.05 | 61 | 1024.1 |
| 20260507152009 | 45 | 294 | 4.0 | 9.0 | 0.03 | 0.13 | 0.05 | 58 | 1024.2 |
| 20260507151508 | 44 | 248 | 2.0 | 8.0 | 0.03 | 0.13 | 0.05 | 66 | 1024.3 |
| 20260507151006 | 44 | 229 | 3.0 | 8.0 | 0.02 | 0.12 | 0.04 | 61 | 1024.3 |
| 20260507150507 | 43 | 230 | 2.0 | 9.0 | 0.03 | 0.12 | 0.04 | 68 | 1024.4 |
| 20260507150104 | 43 | 229 | 3.0 | 9.0 | 0.03 | 0.12 | 0.04 | 66 | 1024.3 |
| 20260507145503 | 43 | 246 | 3.0 | 5.0 | 0.03 | 0.12 | 0.04 | 64 | 1024.5 |
| 20260507145000 | 43 | 246 | 2.0 | 5.0 | 0.03 | 0.12 | 0.04 | 63 | 1024.4 |
| 20260507144604 | 42 | 246 | 2.0 | 5.0 | 0.03 | 0.12 | 0.04 | 64 | 1024.5 |
| 20260507144058 | 42 | 246 | 2.0 | 5.0 | 0.03 | 0.11 | 0.03 | 66 | 1024.7 |
| 20260507143556 | 42 | 246 | 2.0 | 5.0 | 0.03 | 0.11 | 0.03 | 66 | 1024.8 |
| 20260507143108 | 41 | 246 | 2.0 | 5.0 | 0.02 | 0.10 | 0.02 | 66 | 1024.7 |
| 20260507142554 | 41 | 246 | 2.0 | 5.0 | 0.02 | 0.10 | 0.02 | 68 | 1024.7 |
| 20260507142053 | 40 | 246 | 2.0 | 5.0 | 0.02 | 0.10 | 0.02 | 67 | 1024.7 |
| 20260507141607 | 40 | 246 | 2.0 | 7.0 | 0.02 | 0.10 | 0.02 | 68 | 1024.8 |
| 20260507141053 | 39 | 246 | 3.0 | 7.0 | 0.02 | 0.10 | 0.02 | 66 | 1024.9 |
| 20260507140548 | 38 | 245 | 3.0 | 7.0 | 0.01 | 0.09 | 0.01 | 70 | 1024.9 |
| 20260507140047 | 38 | 244 | 3.0 | 9.0 | 0.01 | 0.09 | 0.01 | 68 | 1025.0 |
| 20260507135544 | 38 | 221 | 4.0 | 9.0 | 0.01 | 0.09 | 0.01 | 66 | 1024.9 |
| 20260507135047 | 37 | 217 | 5.0 | 9.0 | 0.01 | 0.09 | 0.01 | 65 | 1025.0 |
| 20260507134542 | 37 | 220 | 5.0 | 9.0 | 0.01 | 0.09 | 0.01 | 64 | 1024.9 |
| 20260507134040 | 37 | 221 | 4.0 | 7.0 | 0.00 | 0.08 | 0.00 | 66 | 1024.8 |
| 20260507133541 | 37 | 243 | 3.0 | 5.0 | 0.00 | 0.08 | 0.00 | 62 | 1024.8 |
| 20260507133040 | 37 | 244 | 3.0 | 5.0 | 0.00 | 0.08 | 0.00 | 64 | 1024.8 |
| 20260507132535 | 36 | 213 | 3.0 | 5.0 | 0.00 | 0.08 | 0.00 | 65 | 1024.8 |
| 20260507132035 | 36 | 207 | 3.0 | 4.0 | 0.00 | 0.08 | 0.00 | 65 | 1024.8 |
| 20260507131538 | 36 | 207 | 2.0 | 6.0 | 0.00 | 0.08 | 0.00 | 65 | 1024.7 |
| 20260507131036 | 35 | 207 | 4.0 | 6.0 | 0.00 | 0.08 | 0.00 | 62 | 1024.8 |
| 20260507130531 | 35 | 219 | 4.0 | 6.0 | 0.00 | 0.08 | 0.00 | 63 | 1024.8 |
| 20260507130038 | 35 | 219 | 4.0 | 6.0 | 0.00 | 0.08 | 0.00 | 61 | 1024.7 |
| 20260507125527 | 35 | 221 | 4.0 | 6.0 | 0.00 | 0.08 | 0.00 | 62 | 1024.7 |
| 20260507125027 | 34 | 277 | 4.0 | 7.0 | 0.00 | 0.08 | 0.00 | 63 | 1024.6 |
| 20260507124523 | 33 | 277 | 4.0 | 7.0 | 0.00 | 0.08 | 0.00 | 64 | 1024.6 |
| 20260507124022 | 32 | 277 | 3.0 | 5.0 | 0.00 | 0.08 | 0.00 | 69 | 1024.4 |
| 20260507123520 | 32 | 277 | 3.0 | 5.0 | 0.00 | 0.08 | 0.00 | 68 | 1024.4 |
| 20260507123021 | 32 | 277 | 3.0 | 5.0 | 0.00 | 0.08 | 0.00 | 68 | 1024.4 |
| 20260507122517 | 32 | 277 | 2.0 | 5.0 | 0.00 | 0.08 | 0.00 | 67 | 1024.4 |
| 20260507122016 | 32 | 277 | 3.0 | 5.0 | 0.00 | 0.08 | 0.00 | 68 | 1024.4 |
| 20260507121515 | 32 | 277 | 2.0 | 5.0 | 0.00 | 0.08 | 0.00 | 67 | 1024.3 |
| 20260507121014 | 31 | 277 | 3.0 | 6.0 | 0.00 | 0.08 | 0.00 | 67 | 1024.5 |
| 20260507120512 | 31 | 277 | 3.0 | 5.0 | 0.00 | 0.08 | 0.00 | 67 | 1024.5 |
| 20260507120012 | 31 | 277 | 2.0 | 5.0 | 0.00 | 0.08 | 0.00 | 67 | 1024.4 |
| 20260507115512 | 31 | 277 | 3.0 | 5.0 | 0.00 | 0.08 | 0.00 | 66 | 1024.4 |
| 20260507115011 | 31 | 277 | 3.0 | 6.0 | 0.00 | 0.08 | 0.00 | 67 | 1024.5 |
| 20260507114514 | 31 | 277 | 3.0 | 6.0 | 0.00 | 0.08 | 0.00 | 66 | 1024.5 |
| 20260507114111 | 31 | 277 | 3.0 | 5.0 | 0.00 | 0.08 | 0.00 | 66 | 1024.5 |
| 20260507113511 | 31 | 277 | 3.0 | 5.0 | 0.00 | 0.08 | 0.00 | 66 | 1024.5 |
| 20260507113010 | 31 | 277 | 3.0 | 5.0 | 0.00 | 0.08 | 0.00 | 65 | 1024.5 |
| 20260507112510 | 31 | 277 | 3.0 | 5.0 | 0.00 | 0.08 | 0.00 | 64 | 1024.5 |
| 20260507112012 | 31 | 277 | 3.0 | 5.0 | 0.00 | 0.08 | 0.00 | 66 | 1024.6 |
| 20260507111510 | 31 | 277 | 3.0 | 5.0 | 0.00 | 0.08 | 0.00 | 65 | 1024.5 |
| 20260507111009 | 31 | 277 | 3.0 | 6.0 | 0.00 | 0.08 | 0.00 | 66 | 1024.6 |
| 20260507110510 | 32 | 277 | 3.0 | 5.0 | 0.00 | 0.08 | 0.00 | 64 | 1024.6 |
| 20260507110010 | 32 | 277 | 3.0 | 5.0 | 0.00 | 0.08 | 0.00 | 63 | 1024.5 |
| 20260507105509 | 32 | 277 | 3.0 | 4.0 | 0.00 | 0.08 | 0.00 | 63 | 1024.5 |
| 20260507105013 | 32 | 277 | 3.0 | 4.0 | 0.00 | 0.08 | 0.00 | 63 | 1024.3 |
| 20260507104508 | 33 | 277 | 3.0 | 4.0 | 0.00 | 0.08 | 0.00 | 61 | 1024.3 |
| 20260507104009 | 32 | 277 | 3.0 | 4.0 | 0.00 | 0.08 | 0.00 | 61 | 1024.3 |
| 20260507103505 | 31 | 277 | 3.0 | 4.0 | 0.00 | 0.08 | 0.00 | 64 | 1024.4 |
| 20260507103004 | 30 | 277 | 2.0 | 5.0 | 0.00 | 0.08 | 0.00 | 69 | 1024.5 |
| 20260507102503 | 29 | 277 | 2.0 | 5.0 | 0.00 | 0.08 | 0.00 | 72 | 1024.6 |
| 20260507102003 | 29 | 277 | 2.0 | 4.0 | 0.00 | 0.08 | 0.00 | 73 | 1024.7 |
| 20260507101504 | 29 | 277 | 1.0 | 4.0 | 0.00 | 0.08 | 0.00 | 73 | 1024.8 |
| 20260507101003 | 30 | 277 | 2.0 | 5.0 | 0.00 | 0.08 | 0.00 | 72 | 1024.6 |
| 20260507100504 | 30 | 277 | 3.0 | 5.0 | 0.00 | 0.08 | 0.00 | 75 | 1024.8 |
| 20260507100006 | 30 | 277 | 2.0 | 6.0 | 0.00 | 0.08 | 0.00 | 73 | 1024.8 |
| 20260507095502 | 30 | 277 | 2.0 | 8.0 | 0.00 | 0.08 | 0.00 | 71 | 1024.8 |
| 20260507095003 | 30 | 277 | 3.0 | 8.0 | 0.00 | 0.08 | 0.00 | 72 | 1024.7 |
| 20260507094502 | 31 | 296 | 3.0 | 7.0 | 0.00 | 0.08 | 0.00 | 73 | 1024.7 |
| 20260507094004 | 31 | 296 | 2.0 | 9.0 | 0.00 | 0.08 | 0.00 | 71 | 1024.5 |
| 20260507093600 | 32 | 289 | 3.0 | 10.0 | 0.00 | 0.08 | 0.00 | 69 | 1024.5 |
| 20260507093502 | 31 | 303 | 4.0 | 10.0 | 0.00 | 0.08 | 0.00 | 69 | 1024.5 |
| 20260507093059 | 31 | 310 | 5.0 | 10.0 | 0.00 | 0.08 | 0.00 | 70 | 1024.6 |
| 20260507092559 | 31 | 306 | 3.0 | 9.0 | 0.00 | 0.08 | 0.00 | 71 | 1024.5 |
| 20260507092058 | 30 | 309 | 3.0 | 8.0 | 0.00 | 0.08 | 0.00 | 71 | 1024.6 |
| 20260507091558 | 30 | 294 | 3.0 | 8.0 | 0.00 | 0.08 | 0.00 | 71 | 1024.8 |
| 20260507091059 | 30 | 265 | 3.0 | 8.0 | 0.00 | 0.08 | 0.00 | 71 | 1024.8 |
| 20260507090557 | 30 | 265 | 3.0 | 8.0 | 0.00 | 0.08 | 0.00 | 71 | 1024.8 |
| 20260507085600 | 30 | 252 | 2.0 | 7.0 | 0.00 | 0.08 | 0.00 | 71 | 1025.0 |
| 20260507085056 | 30 | 252 | 3.0 | 7.0 | 0.00 | 0.08 | 0.00 | 72 | 1025.0 |
| 20260507084557 | 31 | 272 | 3.0 | 7.0 | 0.00 | 0.08 | 0.00 | 70 | 1025.1 |
| 20260507084054 | 31 | 240 | 3.0 | 7.0 | 0.00 | 0.08 | 0.00 | 69 | 1025.0 |
| 20260507083556 | 31 | 215 | 3.0 | 5.0 | 0.00 | 0.08 | 0.00 | 71 | 1024.9 |
| 20260507083052 | 30 | 211 | 3.0 | 5.0 | 0.00 | 0.08 | 0.00 | 74 | 1025.0 |
| 20260507082550 | 30 | 211 | 3.0 | 5.0 | 0.00 | 0.08 | 0.00 | 75 | 1025.0 |
| 20260507082049 | 30 | 211 | 4.0 | 5.0 | 0.00 | 0.08 | 0.00 | 77 | 1025.0 |
| 20260507081554 | 29 | 211 | 3.0 | 5.0 | 0.00 | 0.08 | 0.00 | 78 | 1025.2 |
| 20260507081050 | 29 | 210 | 3.0 | 5.0 | 0.00 | 0.08 | 0.00 | 80 | 1025.1 |
| 20260507080546 | 28 | 210 | 3.0 | 5.0 | 0.00 | 0.08 | 0.00 | 82 | 1025.2 |
| 20260507080056 | 28 | 210 | 3.0 | 5.0 | 0.00 | 0.08 | 0.00 | 83 | 1025.2 |
| 20260507075545 | 28 | 210 | 2.0 | 4.0 | 0.00 | 0.08 | 0.00 | 83 | 1025.2 |
| 20260507075044 | 28 | 210 | 2.0 | 4.0 | 0.00 | 0.08 | 0.00 | 84 | 1025.3 |
| 20260507074546 | 28 | 210 | 2.0 | 4.0 | 0.00 | 0.08 | 0.00 | 85 | 1025.3 |
| 20260507074041 | 28 | 210 | 3.0 | 5.0 | 0.00 | 0.08 | 0.00 | 86 | 1025.3 |
| 20260507073544 | 28 | 210 | 3.0 | 4.0 | 0.00 | 0.08 | 0.00 | 87 | 1025.4 |
| 20260507073040 | 28 | 210 | 2.0 | 4.0 | 0.00 | 0.08 | 0.00 | 89 | 1025.4 |
| 20260507072539 | 27 | 210 | 3.0 | 4.0 | 0.00 | 0.08 | 0.00 | 90 | 1025.6 |
| 20260507072039 | 27 | 210 | 2.0 | 4.0 | 0.00 | 0.08 | 0.00 | 91 | 1025.5 |
| 20260507071538 | 27 | 210 | 2.0 | 4.0 | 0.00 | 0.08 | 0.00 | 91 | 1025.5 |
| 20260507071037 | 27 | 210 | 2.0 | 5.0 | 0.00 | 0.08 | 0.00 | 92 | 1025.6 |
| 20260507070538 | 26 | 210 | 3.0 | 5.0 | 0.00 | 0.08 | 0.00 | 93 | 1025.7 |
| 20260507070042 | 26 | 210 | 3.0 | 4.0 | 0.00 | 0.08 | 0.00 | 93 | 1025.8 |
| 20260507065537 | 26 | 210 | 2.0 | 4.0 | 0.00 | 0.08 | 0.00 | 94 | 1025.7 |
| 20260507065034 | 26 | 210 | 2.0 | 4.0 | 0.00 | 0.08 | 0.00 | 94 | 1025.7 |
| 20260507064558 | 26 | 210 | 2.0 | 4.0 | 0.00 | 0.08 | 0.00 | 94 | 1025.7 |
| 20260507064032 | 26 | 210 | 3.0 | 4.0 | 0.00 | 0.08 | 0.00 | 94 | 1025.8 |
| 20260507063531 | 26 | 210 | 3.0 | 5.0 | 0.00 | 0.08 | 0.00 | 94 | 1025.9 |
| 20260507063034 | 26 | 210 | 3.0 | 5.0 | 0.00 | 0.08 | 0.00 | 95 | 1025.9 |
| 20260507062530 | 26 | 210 | 1.0 | 4.0 | 0.00 | 0.08 | 0.00 | 95 | 1025.7 |
| 20260507062028 | 25 | 210 | 1.0 | 3.0 | 0.00 | 0.08 | 0.00 | 95 | 1025.6 |
| 20260507061530 | 25 | 210 | 1.0 | 4.0 | 0.00 | 0.08 | 0.00 | 95 | 1025.7 |
| 20260507061026 | 25 | 210 | 2.0 | 4.0 | 0.00 | 0.08 | 0.00 | 94 | 1025.6 |
| 20260507060524 | 24 | 210 | 2.0 | 3.0 | 0.00 | 0.08 | 0.00 | 94 | 1025.4 |
| 20260507060123 | 24 | 210 | 0.0 | 2.0 | 0.00 | 0.08 | 0.08 | 94 | 1025.5 |
| 20260507055523 | 25 | 210 | 0.0 | 3.0 | 0.00 | 0.08 | 0.08 | 94 | 1025.4 |
| 20260507055025 | 25 | 210 | 1.0 | 3.0 | 0.00 | 0.08 | 0.08 | 94 | 1025.3 |
| 20260507054521 | 25 | 210 | 2.0 | 3.0 | 0.00 | 0.08 | 0.08 | 94 | 1025.2 |
| 20260507054020 | 25 | 210 | 1.0 | 3.0 | 0.00 | 0.08 | 0.08 | 94 | 1025.2 |
| 20260507053520 | 26 | 210 | 2.0 | 3.0 | 0.00 | 0.08 | 0.08 | 94 | 1025.1 |
| 20260507053022 | 26 | 210 | 0.0 | 2.0 | 0.00 | 0.08 | 0.08 | 94 | 1025.1 |
| 20260507052521 | 26 | 210 | 0.0 | 2.0 | 0.00 | 0.08 | 0.08 | 94 | 1025.0 |
| 20260507052019 | 26 | 210 | 0.0 | 1.0 | 0.00 | 0.08 | 0.08 | 94 | 1025.1 |
| 20260507051519 | 26 | 210 | 0.0 | 3.0 | 0.00 | 0.08 | 0.08 | 94 | 1025.0 |
| 20260507051018 | 26 | 210 | 1.0 | 4.0 | 0.00 | 0.08 | 0.08 | 94 | 1024.9 |
| 20260507050518 | 26 | 210 | 0.0 | 5.0 | 0.00 | 0.08 | 0.08 | 94 | 1024.9 |
| 20260507050033 | 27 | 209 | 1.0 | 6.0 | 0.00 | 0.08 | 0.08 | 94 | 1024.9 |
| 20260507045519 | 27 | 202 | 3.0 | 6.0 | 0.00 | 0.08 | 0.08 | 94 | 1024.7 |
| 20260507045019 | 27 | 202 | 3.0 | 6.0 | 0.00 | 0.08 | 0.08 | 93 | 1024.8 |
| 20260507044518 | 27 | 194 | 3.0 | 7.0 | 0.00 | 0.08 | 0.08 | 94 | 1024.7 |
| 20260507044018 | 27 | 162 | 3.0 | 8.0 | 0.00 | 0.08 | 0.08 | 93 | 1024.7 |
| 20260507043518 | 27 | 189 | 3.0 | 8.0 | 0.00 | 0.08 | 0.08 | 93 | 1024.7 |
| 20260507043017 | 27 | 186 | 4.0 | 8.0 | 0.00 | 0.08 | 0.08 | 93 | 1024.8 |
| 20260507042518 | 27 | 174 | 2.0 | 8.0 | 0.00 | 0.08 | 0.08 | 93 | 1024.6 |
| 20260507042017 | 27 | 193 | 2.0 | 12.0 | 0.00 | 0.08 | 0.08 | 93 | 1024.7 |
| 20260507041524 | 27 | 213 | 4.0 | 12.0 | 0.00 | 0.08 | 0.08 | 93 | 1024.8 |
| 20260507041018 | 27 | 184 | 4.0 | 10.0 | 0.00 | 0.08 | 0.08 | 93 | 1024.8 |
| 20260507040517 | 27 | 214 | 3.0 | 8.0 | 0.00 | 0.08 | 0.08 | 93 | 1024.9 |
| 20260507040016 | 27 | 197 | 3.0 | 8.0 | 0.00 | 0.08 | 0.08 | 93 | 1024.8 |
| 20260507035516 | 27 | 205 | 4.0 | 9.0 | 0.00 | 0.08 | 0.08 | 93 | 1024.9 |
| 20260507035016 | 27 | 148 | 3.0 | 8.0 | 0.00 | 0.08 | 0.08 | 93 | 1024.8 |
| 20260507034516 | 28 | 202 | 4.0 | 10.0 | 0.00 | 0.08 | 0.08 | 93 | 1024.9 |
| 20260507034017 | 28 | 202 | 3.0 | 10.0 | 0.00 | 0.08 | 0.08 | 93 | 1024.9 |
| 20260507033517 | 28 | 198 | 6.0 | 9.0 | 0.00 | 0.08 | 0.08 | 92 | 1024.9 |
| 20260507033020 | 28 | 207 | 5.0 | 9.0 | 0.00 | 0.08 | 0.08 | 92 | 1024.9 |
| 20260507032514 | 28 | 194 | 3.0 | 9.0 | 0.00 | 0.08 | 0.08 | 92 | 1024.9 |
| 20260507032115 | 28 | 180 | 4.0 | 9.0 | 0.00 | 0.08 | 0.08 | 92 | 1024.9 |
| 20260507031517 | 28 | 235 | 3.0 | 10.0 | 0.00 | 0.08 | 0.08 | 92 | 1024.8 |
| 20260507031015 | 28 | 200 | 2.0 | 8.0 | 0.00 | 0.08 | 0.08 | 92 | 1024.7 |
| 20260507030518 | 28 | 200 | 2.0 | 5.0 | 0.00 | 0.08 | 0.08 | 92 | 1024.7 |
| 20260507030025 | 28 | 200 | 2.0 | 6.0 | 0.00 | 0.08 | 0.08 | 91 | 1024.6 |
| 20260507025514 | 28 | 200 | 3.0 | 7.0 | 0.00 | 0.08 | 0.08 | 91 | 1024.5 |
| 20260507025014 | 28 | 200 | 2.0 | 7.0 | 0.00 | 0.08 | 0.08 | 91 | 1024.5 |
| 20260507024522 | 28 | 217 | 3.0 | 7.0 | 0.00 | 0.08 | 0.08 | 91 | 1024.6 |
| 20260507024013 | 28 | 217 | 3.0 | 8.0 | 0.00 | 0.08 | 0.08 | 91 | 1024.5 |
| 20260507023515 | 29 | 211 | 5.0 | 10.0 | 0.00 | 0.08 | 0.08 | 90 | 1024.5 |
| 20260507023013 | 29 | 220 | 4.0 | 10.0 | 0.00 | 0.08 | 0.08 | 90 | 1024.5 |
| 20260507022513 | 29 | 216 | 3.0 | 9.0 | 0.00 | 0.08 | 0.08 | 90 | 1024.5 |
| 20260507022013 | 29 | 217 | 4.0 | 8.0 | 0.00 | 0.08 | 0.08 | 90 | 1024.5 |
| 20260507021515 | 29 | 212 | 3.0 | 9.0 | 0.00 | 0.08 | 0.08 | 90 | 1024.5 |
| 20260507021014 | 29 | 219 | 4.0 | 10.0 | 0.00 | 0.08 | 0.08 | 90 | 1024.5 |
| 20260507020513 | 29 | 212 | 3.0 | 10.0 | 0.00 | 0.08 | 0.08 | 89 | 1024.3 |
| 20260507020012 | 30 | 225 | 5.0 | 9.0 | 0.00 | 0.08 | 0.08 | 89 | 1024.3 |
| 20260507015516 | 30 | 209 | 5.0 | 10.0 | 0.00 | 0.08 | 0.08 | 88 | 1024.3 |
| 20260507015014 | 30 | 223 | 4.0 | 8.0 | 0.00 | 0.08 | 0.08 | 88 | 1024.2 |
| 20260507014513 | 31 | 205 | 5.0 | 10.0 | 0.00 | 0.08 | 0.08 | 87 | 1024.2 |
| 20260507014011 | 31 | 232 | 6.0 | 9.0 | 0.00 | 0.08 | 0.08 | 87 | 1024.2 |
| 20260507013510 | 31 | 207 | 5.0 | 9.0 | 0.00 | 0.08 | 0.08 | 87 | 1024.1 |
| 20260507013013 | 32 | 229 | 4.0 | 8.0 | 0.01 | 0.08 | 0.08 | 87 | 1024.2 |
| 20260507012510 | 32 | 213 | 4.0 | 10.0 | 0.01 | 0.08 | 0.08 | 86 | 1024.2 |
| 20260507012010 | 32 | 238 | 4.0 | 10.0 | 0.01 | 0.08 | 0.08 | 86 | 1024.2 |
| 20260507011509 | 32 | 205 | 6.0 | 10.0 | 0.01 | 0.08 | 0.08 | 85 | 1024.2 |
| 20260507011009 | 33 | 176 | 3.0 | 11.0 | 0.01 | 0.08 | 0.08 | 86 | 1024.2 |
| 20260507010510 | 33 | 197 | 5.0 | 11.0 | 0.01 | 0.08 | 0.08 | 85 | 1024.3 |
| 20260507010010 | 33 | 219 | 4.0 | 8.0 | 0.01 | 0.08 | 0.08 | 85 | 1024.3 |
| 20260507005512 | 33 | 249 | 4.0 | 9.0 | 0.02 | 0.08 | 0.08 | 85 | 1024.3 |
| 20260507005010 | 33 | 206 | 4.0 | 9.0 | 0.02 | 0.08 | 0.08 | 84 | 1024.2 |
| 20260507004509 | 33 | 225 | 4.0 | 9.0 | 0.02 | 0.08 | 0.08 | 84 | 1024.2 |
| 20260507004008 | 33 | 180 | 3.0 | 10.0 | 0.02 | 0.08 | 0.08 | 85 | 1024.2 |
| 20260507003509 | 33 | 181 | 4.0 | 10.0 | 0.02 | 0.08 | 0.08 | 84 | 1024.2 |
| 20260507003008 | 33 | 206 | 3.0 | 8.0 | 0.01 | 0.07 | 0.07 | 84 | 1024.2 |
| 20260507002508 | 33 | 202 | 3.0 | 10.0 | 0.01 | 0.07 | 0.07 | 85 | 1024.3 |
| 20260507002009 | 33 | 203 | 4.0 | 10.0 | 0.01 | 0.07 | 0.07 | 84 | 1024.2 |
| 20260507001508 | 33 | 236 | 3.0 | 8.0 | 0.01 | 0.07 | 0.07 | 84 | 1024.3 |
| 20260507001006 | 33 | 213 | 4.0 | 9.0 | 0.01 | 0.07 | 0.07 | 85 | 1024.4 |
| 20260507000506 | 33 | 188 | 4.0 | 9.0 | 0.02 | 0.07 | 0.07 | 85 | 1024.5 |
| 20260507000007 | 33 | 215 | 5.0 | 8.0 | 0.01 | 0.07 | 0.06 | 85 | 1024.4 |
| 20260506235505 | 32 | 226 | 4.0 | 9.0 | 0.01 | 0.07 | 0.06 | 85 | 1024.5 |
| 20260506235006 | 32 | 228 | 5.0 | 9.0 | 0.01 | 0.07 | 0.06 | 86 | 1024.5 |
| 20260506234504 | 32 | 204 | 5.0 | 8.0 | 0.02 | 0.07 | 0.06 | 86 | 1024.4 |
| 20260506234003 | 31 | 237 | 4.0 | 8.0 | 0.02 | 0.07 | 0.06 | 86 | 1024.4 |
| 20260506233505 | 32 | 214 | 3.0 | 8.0 | 0.02 | 0.07 | 0.06 | 86 | 1024.4 |
| 20260506233002 | 32 | 186 | 3.0 | 8.0 | 0.02 | 0.07 | 0.06 | 87 | 1024.3 |
| 20260506232502 | 32 | 229 | 4.0 | 7.0 | 0.02 | 0.07 | 0.06 | 85 | 1024.4 |
| 20260506232002 | 32 | 220 | 3.0 | 6.0 | 0.02 | 0.07 | 0.06 | 85 | 1024.3 |
| 20260506231502 | 31 | 227 | 4.0 | 6.0 | 0.02 | 0.07 | 0.06 | 85 | 1024.4 |
| 20260506231005 | 31 | 210 | 2.0 | 6.0 | 0.02 | 0.07 | 0.06 | 86 | 1024.5 |